• In Deutschland
  • Länderverzeichnis
  • Für 7 Tage
  • Wassertemperatur
  • Satellitenkarten
  • Wetterkarte
  • Widgets
  • user-avatar
    Anmelden

    Stündliche Wetter Kaprun

    Heute, 25 April, Dienstag

    Zeit Temperatur Niederschläge Wind Luftdruck Luftfeuchtigkeit
    00:00 -4°C° 0 mm 3 m/S 593 mmHg 95%
    01:00 -2°C° 0 mm 3 m/S 592 mmHg 95%
    02:00 -4°C° 0 mm 3 m/S 592 mmHg 95%
    03:00 -4°C° 0 mm 3 m/S 591 mmHg 95%
    04:00 -4°C° 0 mm 3 m/S 591 mmHg 95%
    05:00 -4°C° 0,1 mm 3 m/S 591 mmHg 94%
    06:00 -2°C° 0,1 mm 3 m/S 591 mmHg 94%
    07:00 -1°C° 0,1 mm 2 m/S 591 mmHg 93%
    08:00 +1°C° 0,1 mm 2 m/S 592 mmHg 91%
    09:00 +2°C° 0,1 mm 2 m/S 592 mmHg 89%
    10:00 +3°C° 0,1 mm 2 m/S 592 mmHg 87%
    11:00 +3°C° 0,3 mm 2 m/S 592 mmHg 86%
    12:00 +4°C° 0,3 mm 2 m/S 592 mmHg 86%
    13:00 +4°C° 0,3 mm 2 m/S 592 mmHg 86%
    14:00 +4°C° 0,6 mm 2 m/S 592 mmHg 87%
    15:00 +3°C° 0,6 mm 3 m/S 591 mmHg 89%
    16:00 +2°C° 0,6 mm 3 m/S 591 mmHg 90%
    17:00 +2°C° 0,5 mm 2 m/S 590 mmHg 92%
    18:00 +2°C° 0,5 mm 2 m/S 590 mmHg 95%
    19:00 +1°C° 0,5 mm 2 m/S 590 mmHg 98%
    20:00 -1°C° 0,5 mm 2 m/S 590 mmHg 98%
    21:00 -1°C° 0,5 mm 2 m/S 590 mmHg 98%
    22:00 -1°C° 0,5 mm 2 m/S 590 mmHg 98%
    23:00 -1°C° 0,3 mm 2 m/S 590 mmHg 98%

    Morgen, 26 April, Mittwoch

    Zeit Temperatur Niederschläge Wind Luftdruck Luftfeuchtigkeit
    00:00 -1°C° 0,3 mm 3 m/S 590 mmHg 98%
    01:00 -2°C° 0,3 mm 3 m/S 589 mmHg 98%
    02:00 -2°C° 0,1 mm 3 m/S 589 mmHg 98%
    03:00 -2°C° 0,1 mm 3 m/S 589 mmHg 98%
    04:00 -2°C° 0,1 mm 3 m/S 589 mmHg 98%
    05:00 -2°C° 0,4 mm 3 m/S 589 mmHg 98%
    06:00 -2°C° 0,4 mm 3 m/S 589 mmHg 98%
    07:00 -2°C° 0,4 mm 3 m/S 589 mmHg 97%
    08:00 -2°C° 1 mm 3 m/S 589 mmHg 97%
    09:00 -2°C° 1 mm 3 m/S 590 mmHg 97%
    10:00 -1°C° 1 mm 3 m/S 590 mmHg 97%
    11:00 -2°C° 1,6 mm 3 m/S 590 mmHg 97%
    12:00 -2°C° 1,6 mm 2 m/S 590 mmHg 97%
    13:00 -2°C° 1,6 mm 2 m/S 590 mmHg 97%
    14:00 -2°C° 1,9 mm 2 m/S 590 mmHg 97%
    15:00 -2°C° 1,9 mm 2 m/S 590 mmHg 97%
    16:00 -2°C° 1,9 mm 2 m/S 590 mmHg 98%
    17:00 -1°C° 2,2 mm 1 m/S 589 mmHg 98%
    18:00 -1°C° 2,2 mm 1 m/S 589 mmHg 98%
    19:00 -2°C° 2,2 mm 1 m/S 589 mmHg 98%
    20:00 -2°C° 1,9 mm 1 m/S 589 mmHg 98%
    21:00 -3°C° 1,9 mm 1 m/S 589 mmHg 98%
    22:00 -3°C° 1,9 mm 1 m/S 589 mmHg 98%
    23:00 -3°C° 1,3 mm 1 m/S 589 mmHg 98%

    übermorgen, 27 April, Donnerstag

    Zeit Temperatur Niederschläge Wind Luftdruck Luftfeuchtigkeit
    00:00 -3°C° 1,3 mm 1 m/S 589 mmHg 98%
    01:00 -3°C° 1,3 mm 1 m/S 589 mmHg 98%
    02:00 -3°C° 0,9 mm 1 m/S 589 mmHg 98%
    03:00 -3°C° 0,9 mm 1 m/S 589 mmHg 98%
    04:00 -3°C° 0,9 mm 1 m/S 588 mmHg 98%
    05:00 -3°C° 0,7 mm 1 m/S 589 mmHg 98%
    06:00 -2°C° 0,7 mm 1 m/S 589 mmHg 98%
    07:00 -1°C° 0,7 mm 1 m/S 590 mmHg 98%
    08:00 -1°C° 1,2 mm 1 m/S 590 mmHg 98%
    09:00 -1°C° 1,2 mm 1 m/S 590 mmHg 98%
    10:00 0°C° 1,2 mm 1 m/S 590 mmHg 98%
    11:00 0°C° 1,8 mm 1 m/S 590 mmHg 98%
    12:00 0°C° 1,8 mm 1 m/S 590 mmHg 98%
    13:00 0°C° 1,8 mm 1 m/S 590 mmHg 98%
    14:00 -3°C° 1,9 mm 2 m/S 590 mmHg 98%
    15:00 -3°C° 1,9 mm 2 m/S 589 mmHg 98%
    16:00 -3°C° 1,9 mm 2 m/S 589 mmHg 98%
    17:00 -4°C° 2,2 mm 2 m/S 589 mmHg 98%
    18:00 -4°C° 2,2 mm 2 m/S 588 mmHg 99%
    19:00 -5°C° 2,2 mm 2 m/S 588 mmHg 99%
    20:00 -5°C° 2 mm 2 m/S 588 mmHg 99%
    21:00 -5°C° 2 mm 2 m/S 588 mmHg 99%
    22:00 -6°C° 2 mm 2 m/S 588 mmHg 99%
    23:00 -6°C° 0,9 mm 2 m/S 588 mmHg 99%

    28 April, Freitag

    Zeit Temperatur Niederschläge Wind Luftdruck Luftfeuchtigkeit
    00:00 -4°C° 0,9 mm 1 m/S 588 mmHg 99%
    01:00 -4°C° 0,9 mm 1 m/S 588 mmHg 98%
    02:00 -4°C° 0,7 mm 1 m/S 587 mmHg 99%
    03:00 -6°C° 0,7 mm 1 m/S 587 mmHg 99%
    04:00 -6°C° 0,7 mm 1 m/S 586 mmHg 99%
    05:00 -4°C° 1 mm 1 m/S 587 mmHg 99%
    06:00 -4°C° 1 mm 1 m/S 587 mmHg 99%
    07:00 -4°C° 1 mm 1 m/S 587 mmHg 98%
    08:00 -3°C° 0,9 mm 1 m/S 588 mmHg 98%
    09:00 -3°C° 0,9 mm 1 m/S 588 mmHg 98%
    10:00 -4°C° 0,9 mm 2 m/S 588 mmHg 98%
    11:00 -4°C° 1 mm 2 m/S 589 mmHg 98%
    12:00 -4°C° 1 mm 2 m/S 589 mmHg 98%
    13:00 -4°C° 1 mm 2 m/S 589 mmHg 98%
    14:00 -4°C° 0,8 mm 2 m/S 589 mmHg 98%
    15:00 -4°C° 0,8 mm 2 m/S 590 mmHg 98%
    16:00 -4°C° 0,8 mm 2 m/S 590 mmHg 98%
    17:00 -5°C° 0,6 mm 2 m/S 590 mmHg 98%
    18:00 -5°C° 0,6 mm 2 m/S 591 mmHg 98%
    19:00 -6°C° 0,6 mm 2 m/S 591 mmHg 98%
    20:00 -6°C° 0,5 mm 2 m/S 591 mmHg 98%
    21:00 -7°C° 0,5 mm 2 m/S 591 mmHg 98%
    22:00 -7°C° 0,5 mm 2 m/S 592 mmHg 98%
    23:00 -7°C° 0,4 mm 2 m/S 592 mmHg 98%

    29 April, Samstag

    Zeit Temperatur Niederschläge Wind Luftdruck Luftfeuchtigkeit
    00:00 -7°C° 0,4 mm 2 m/S 592 mmHg 97%
    01:00 -7°C° 0,4 mm 1 m/S 592 mmHg 97%
    02:00 -7°C° 0,3 mm 1 m/S 592 mmHg 97%
    03:00 -7°C° 0,3 mm 1 m/S 592 mmHg 97%
    04:00 -7°C° 0,3 mm 1 m/S 592 mmHg 97%
    05:00 -7°C° 0,1 mm 1 m/S 593 mmHg 97%
    06:00 -6°C° 0,1 mm 1 m/S 593 mmHg 96%
    07:00 -4°C° 0,1 mm 1 m/S 593 mmHg 96%
    08:00 -3°C° 0 mm 1 m/S 594 mmHg 96%
    09:00 -2°C° 0 mm 1 m/S 594 mmHg 96%
    10:00 -2°C° 0 mm 0 m/S 594 mmHg 97%
    11:00 -1°C° 0,1 mm 1 m/S 594 mmHg 96%
    12:00 0°C° 0,1 mm 1 m/S 594 mmHg 96%
    13:00 0°C° 0,1 mm 1 m/S 594 mmHg 96%
    14:00 0°C° 0,1 mm 1 m/S 594 mmHg 96%
    15:00 0°C° 0,1 mm 1 m/S 594 mmHg 96%
    16:00 +1°C° 0,1 mm 1 m/S 594 mmHg 96%
    17:00 -1°C° 0 mm 1 m/S 593 mmHg 97%
    18:00 -2°C° 0 mm 1 m/S 593 mmHg 97%
    19:00 -4°C° 0 mm 1 m/S 592 mmHg 98%
    20:00 -4°C° 0 mm 1 m/S 592 mmHg 97%
    21:00 -7°C° 0 mm 2 m/S 592 mmHg 97%
    22:00 -7°C° 0 mm 2 m/S 592 mmHg 96%
    23:00 -8°C° 0 mm 2 m/S 592 mmHg 96%

    30 April, Sonntag

    Zeit Temperatur Niederschläge Wind Luftdruck Luftfeuchtigkeit
    00:00 -8°C° 0 mm 2 m/S 592 mmHg 95%
    01:00 -8°C° 0 mm 2 m/S 592 mmHg 95%
    02:00 -8°C° 0 mm 2 m/S 592 mmHg 95%
    03:00 -8°C° 0 mm 2 m/S 591 mmHg 95%
    04:00 -8°C° 0 mm 2 m/S 591 mmHg 95%
    05:00 -7°C° 0 mm 2 m/S 592 mmHg 94%
    06:00 -5°C° 0 mm 2 m/S 592 mmHg 94%
    07:00 -4°C° 0 mm 2 m/S 593 mmHg 94%
    08:00 -3°C° 0 mm 2 m/S 593 mmHg 93%
    09:00 -2°C° 0 mm 2 m/S 593 mmHg 93%
    10:00 -1°C° 0 mm 2 m/S 593 mmHg 92%
    11:00 +1°C° 0 mm 2 m/S 593 mmHg 91%
    12:00 +1°C° 0 mm 2 m/S 593 mmHg 90%
    13:00 +2°C° 0 mm 2 m/S 593 mmHg 89%
    14:00 +2°C° 0 mm 2 m/S 593 mmHg 90%
    15:00 +2°C° 0 mm 2 m/S 592 mmHg 90%
    16:00 +2°C° 0 mm 2 m/S 592 mmHg 90%
    17:00 +1°C° 0 mm 2 m/S 592 mmHg 92%
    18:00 -1°C° 0 mm 2 m/S 592 mmHg 93%
    19:00 -2°C° 0 mm 2 m/S 591 mmHg 95%
    20:00 -3°C° 0 mm 2 m/S 591 mmHg 95%
    21:00 -3°C° 0 mm 2 m/S 591 mmHg 95%
    22:00 -4°C° 0 mm 2 m/S 591 mmHg 95%
    23:00 -4°C° 0 mm 2 m/S 591 mmHg 94%
    Mehr zeigen